Weather History for Monterey, CA

Change the Weather History Date:

Friday, May 23, 2014

  Actual Average Record
Temperature  
Mean Temperature 59 °F 57 °F  
Max Temperature 65 °F 64 °F 74 °F (2000)
Min Temperature 53 °F 51 °F 42 °F (2002)
Degree Days  
Heating Degree Days 6    
Month to date heating degree days 107  
Since 1 July heating degree days 2388  
Cooling Degree Days 0    
Month to date cooling degree days 29  
Year to date cooling degree days 42  
Growing Degree Days 8 (Base 50)    
Moisture  
Dew Point 51 °F    
Average Humidity 80    
Maximum Humidity 93    
Minimum Humidity 67    
Precipitation  
Precipitation 0.01 in - 0.01 in (2014)
Month to date precipitation 0.09  
Year to date precipitation 7.38  
Since 1 July precipitation 8.66  
Sea Level Pressure  
Sea Level Pressure 30.07 in    
Wind  
Wind Speed 7 mph (WSW)    
Max Wind Speed 16 mph    
Max Gust Speed 22 mph    
Visibility 8 miles    
Events      
T = Trace of Precipitation, MM = Missing Value Source: NWS Daily Summary

Daily Weather History Graph

Daily Weather History Graph

Search for Another Location

Airport:

Trip Planner

Search our weather history database for the weather conditions in past years. The results will help you decide how hot, cold, wet, or windy it might be!

Date:

Astronomy

May. 23, 2014 Rise Set
Actual Time 5:54 AM PDT 8:14 PM PDT
Civil Twilight 5:25 AM PDT 8:43 PM PDT
Nautical Twilight 4:49 AM PDT 9:19 PM PDT
Astronomical Twilight 4:09 AM PDT 9:59 PM PDT
Moon 2:43 AM PDT (5/23) 3:20 PM PDT (5/23)
Length of Visible Light 15h 18m
Length of Day
14h 19m
Waning Crescent, 26% of the Moon is Illuminated
May 23
Waning Crescent
May 28
New
Jun 5
First Quarter
Jun 12
Full
Jun 19
Last Quarter

Hourly Weather History & Observations

Time (PDT) Temp. Dew Point Humidity Pressure Visibility Wind Dir Wind Speed Gust Speed Precip Events Conditions
12:54 AM 55.9 °F 51.1 °F 84% 30.10 in 10.0 mi Variable 3.5 mph - N/A   Overcast
1:54 AM 55.9 °F 51.1 °F 84% 30.08 in 10.0 mi SE 3.5 mph - N/A   Overcast
2:54 AM 55.9 °F 51.1 °F 84% 30.08 in 10.0 mi West 4.6 mph - N/A   Overcast
3:32 AM 55.4 °F 51.8 °F 88% 30.03 in 10.0 mi SW 3.5 mph - N/A   Overcast
3:54 AM 55.0 °F 52.0 °F 89% 30.07 in 7.0 mi Calm Calm - N/A   Overcast
4:54 AM 55.0 °F 52.0 °F 89% 30.06 in 7.0 mi Calm Calm - N/A   Overcast
5:54 AM 54.0 °F 51.1 °F 90% 30.07 in 3.0 mi West 4.6 mph - N/A   Overcast
6:04 AM 53.6 °F 51.8 °F 94% 30.04 in 1.5 mi West 4.6 mph - N/A   Overcast
6:54 AM 53.1 °F 51.1 °F 93% 30.09 in 1.0 mi West 4.6 mph - N/A   Overcast
7:44 AM 53.6 °F 51.8 °F 94% 30.06 in 2.5 mi WNW 3.5 mph - N/A   Overcast
7:54 AM 53.1 °F 51.1 °F 93% 30.10 in 4.0 mi WNW 3.5 mph - N/A   Overcast
8:54 AM 55.0 °F 51.1 °F 86% 30.10 in 10.0 mi Calm Calm - N/A   Overcast
9:54 AM 57.9 °F 50.0 °F 75% 30.10 in 10.0 mi West 9.2 mph - 0.01 in   Scattered Clouds
10:18 AM 59.0 °F 50.0 °F 72% 30.06 in 10.0 mi West 8.1 mph - N/A   Mostly Cloudy
10:28 AM 60.8 °F 50.0 °F 68% 30.06 in 10.0 mi WNW 8.1 mph - N/A   Scattered Clouds
10:54 AM 60.1 °F 50.0 °F 69% 30.10 in 10.0 mi WNW 5.8 mph - N/A   Clear
11:54 AM 61.0 °F 51.1 °F 70% 30.10 in 10.0 mi West 11.5 mph - N/A   Partly Cloudy
12:54 PM 62.1 °F 52.0 °F 70% 30.09 in 10.0 mi WNW 11.5 mph - N/A   Clear
1:54 PM 63.0 °F 51.1 °F 65% 30.08 in 10.0 mi WNW 11.5 mph - N/A   Clear
2:54 PM 63.0 °F 51.1 °F 65% 30.07 in 10.0 mi WNW 12.7 mph - N/A   Clear
3:54 PM 63.0 °F 52.0 °F 67% 30.07 in 10.0 mi WSW 12.7 mph 21.9 mph N/A   Mostly Cloudy
4:54 PM 60.1 °F 52.0 °F 75% 30.06 in 10.0 mi WSW 9.2 mph - N/A   Mostly Cloudy
5:54 PM 59.0 °F 52.0 °F 78% 30.06 in 10.0 mi WSW 8.1 mph - N/A   Mostly Cloudy
6:01 PM 59.0 °F 51.8 °F 77% 30.02 in 10.0 mi WSW 9.2 mph - N/A   Overcast
6:54 PM 57.9 °F 52.0 °F 81% 30.06 in 9.0 mi SW 6.9 mph - N/A   Overcast
7:54 PM 59.0 °F 52.0 °F 78% 30.06 in 10.0 mi SW 10.4 mph - N/A   Overcast
8:54 PM 59.0 °F 52.0 °F 78% 30.06 in 10.0 mi SW 8.1 mph - N/A   Overcast
9:24 PM 57.2 °F 51.8 °F 82% 30.03 in 10.0 mi SW 5.8 mph - N/A   Overcast
9:54 PM 57.9 °F 51.1 °F 78% 30.07 in 10.0 mi South 4.6 mph - N/A   Overcast
10:54 PM 57.9 °F 51.1 °F 78% 30.08 in 10.0 mi South 5.8 mph - N/A   Scattered Clouds
11:54 PM 57.9 °F 48.9 °F 72% 30.08 in 10.0 mi SSW 5.8 mph - N/A   Clear